DW9635 Weather Reports


time (UTC)temp
C
wind
direction
speed
KPH
gust
KPH
rain 1hr
cm
rain 24hr
cm
rain mn
cm
humidity
%
barometer
mb
20190420080114 21 356 0.0 0.0 0.00 0.00 0.00 39 1023.1
20190420074655 22 356 0.0 3.2 0.00 0.00 0.00 37 1023.0
20190420073200 22 356 0.0 3.2 0.00 0.00 0.00 37 1023.1
20190420071641 23 356 0.0 4.8 0.00 0.00 0.00 36 1023.1
20190420070108 23 360 0.0 6.4 0.00 0.00 0.00 35 1023.1
20190420064635 23 335 0.0 8.0 0.00 0.00 0.00 34 1023.2
20190420063107 24 3 0.0 6.4 0.00 0.00 0.00 33 1023.1
20190420061559 25 5 0.0 6.4 0.00 0.00 0.00 32 1023.2
20190420060107 25 357 0.0 6.4 0.00 0.00 0.00 32 1023.5
20190420054603 25 330 0.0 8.0 0.00 0.00 0.00 32 1023.6
20190420053059 25 339 1.6 6.4 0.00 0.00 0.00 31 1023.7
20190420051639 25 345 0.0 9.7 0.00 0.00 0.00 31 1023.7
20190420050054 25 333 1.6 8.0 0.00 0.00 0.00 31 1023.9
20190420044617 25 360 0.0 6.4 0.00 0.00 0.00 30 1024.2
20190420043112 25 354 0.0 9.7 0.00 0.00 0.00 31 1024.3
20190420041549 25 311 1.6 11.3 0.00 0.00 0.00 31 1024.6
20190420040103 25 35 3.2 12.9 0.00 0.00 0.00 31 1024.8
20190420034526 25 318 4.8 11.3 0.00 0.00 0.00 31 1025.0
20190420033027 25 221 0.0 11.3 0.00 0.00 0.00 31 1025.1
20190420031522 25 235 0.0 8.0 0.00 0.00 0.00 31 1025.4
20190420030025 25 24 1.6 12.9 0.00 0.00 0.00 32 1025.6
20190420024519 25 340 3.2 9.7 0.00 0.00 0.00 32 1025.7
20190420023015 24 341 1.6 11.3 0.00 0.00 0.00 32 1026.0
20190420021524 24 356 0.0 12.9 0.00 0.00 0.00 32 1026.2
20190420020008 24 341 0.0 6.4 0.00 0.00 0.00 32 1026.5
20190420014712 24 337 0.0 8.0 0.00 0.00 0.00 32 1026.8
20190420013136 23 3 0.0 9.7 0.00 0.00 0.00 33 1026.8
20190420011656 22 346 0.0 8.0 0.00 0.00 0.00 34 1027.2
20190420010204 22 360 1.6 11.3 0.00 0.00 0.00 35 1027.2
20190420004631 21 353 0.0 9.7 0.00 0.00 0.00 36 1027.3
20190420003134 21 272 0.0 4.8 0.00 0.00 0.00 35 1027.5
20190420001655 21 339 0.0 11.3 0.00 0.00 0.00 36 1027.5
20190420000110 21 354 0.0 0.0 0.00 0.00 0.00 36 1027.6
20190419234611 21 333 0.0 0.0 0.00 0.00 0.00 38 1027.7
20190419233116 20 6 0.0 0.0 0.00 0.00 0.00 40 1027.9
20190419231624 19 332 0.0 0.0 0.00 0.00 0.00 43 1027.8
20190419230113 18 345 0.0 0.0 0.00 0.00 0.00 49 1027.9
20190419224535 16 175 0.0 0.0 0.00 0.00 0.00 59 1027.9
20190419223033 13 175 0.0 0.0 0.00 0.00 0.00 68 1028.0
20190419221523 11 175 0.0 0.0 0.00 0.00 0.00 76 1027.9
20190419220014 8 175 0.0 0.0 0.00 0.00 0.00 84 1027.9
20190419214508 5 175 0.0 0.0 0.00 0.00 0.00 88 1027.8
20190419213216 5 175 0.0 0.0 0.00 0.00 0.00 85 1027.7
20190419211645 5 175 0.0 0.0 0.00 0.00 0.00 84 1027.5
20190419210219 5 175 0.0 0.0 0.00 0.00 0.00 84 1027.5
20190419204639 5 175 0.0 0.0 0.00 0.00 0.00 84 1027.4
20190419203137 5 175 0.0 0.0 0.00 0.00 0.00 84 1027.3
20190419201635 5 175 0.0 0.0 0.00 0.00 0.00 83 1027.3
20190419200104 5 175 0.0 0.0 0.00 0.00 0.00 83 1027.4
20190419194656 5 175 0.0 0.0 0.00 0.00 0.00 83 1027.3
20190419193142 5 175 0.0 0.0 0.00 0.00 0.00 83 1027.2
20190419191608 5 175 0.0 0.0 0.00 0.00 0.00 82 1027.3
20190419190141 5 175 0.0 0.0 0.00 0.00 0.00 82 1027.2
20190419184640 5 175 0.0 0.0 0.00 0.00 0.00 82 1027.2
20190419183122 5 175 0.0 0.0 0.00 0.00 0.00 81 1027.3
20190419181634 6 175 0.0 0.0 0.00 0.00 0.00 82 1027.2
20190419180158 6 175 0.0 0.0 0.00 0.00 0.00 82 1027.2
20190419174653 6 175 0.0 0.0 0.00 0.00 0.00 81 1027.2
20190419173130 6 175 0.0 0.0 0.00 0.00 0.00 81 1027.2
20190419171648 6 175 0.0 0.0 0.00 0.00 0.00 81 1027.2
20190419170123 6 175 0.0 0.0 0.00 0.00 0.00 80 1027.2
20190419164631 6 175 0.0 0.0 0.00 0.00 0.00 80 1027.4
20190419163052 6 175 0.0 0.0 0.00 0.00 0.00 80 1027.5
20190419161606 6 175 0.0 0.0 0.00 0.00 0.00 80 1027.5
20190419160115 6 175 0.0 0.0 0.00 0.00 0.00 79 1027.6
20190419154554 6 175 0.0 0.0 0.00 0.00 0.00 79 1027.6
20190419153057 6 175 0.0 0.0 0.00 0.00 0.00 79 1027.7
20190419151548 6 175 0.0 0.0 0.00 0.00 0.00 78 1027.7
20190419150105 6 175 0.0 0.0 0.00 0.00 0.00 78 1027.9
20190419144557 6 175 0.0 0.0 0.00 0.00 0.00 78 1027.8
20190419143047 7 175 0.0 0.0 0.00 0.00 0.00 78 1027.9
20190419141547 7 175 0.0 0.0 0.00 0.00 0.00 78 1027.9
20190419140041 7 175 0.0 0.0 0.00 0.00 0.00 78 1028.2
20190419134557 7 175 0.0 0.0 0.00 0.00 0.00 78 1028.2
20190419133033 7 175 0.0 0.0 0.00 0.00 0.00 78 1028.3
20190419131554 7 175 0.0 0.0 0.00 0.00 0.00 78 1028.5
20190419130018 8 175 0.0 0.0 0.00 0.00 0.00 78 1028.5
20190419124513 8 175 0.0 0.0 0.00 0.00 0.00 79 1028.6
20190419123040 8 175 0.0 0.0 0.00 0.00 0.00 78 1028.7
20190419121526 8 175 0.0 0.0 0.00 0.00 0.00 78 1028.7
20190419120015 8 175 0.0 0.0 0.00 0.00 0.00 77 1028.7
20190419114518 9 175 0.0 0.0 0.00 0.00 0.00 75 1028.6
20190419113022 9 175 0.0 0.0 0.00 0.00 0.00 74 1028.6
20190419111519 10 175 0.0 0.0 0.00 0.00 0.00 74 1028.4
20190419110015 10 175 0.0 0.0 0.00 0.00 0.00 72 1028.4
20190419104540 10 175 0.0 0.0 0.00 0.00 0.00 71 1028.4
20190419103026 11 175 0.0 0.0 0.00 0.00 0.00 70 1028.4
20190419101517 11 175 0.0 0.0 0.00 0.00 0.00 68 1028.4
20190419100012 12 175 0.0 0.0 0.00 0.00 0.00 68 1028.3
20190419094532 12 175 0.0 0.0 0.00 0.00 0.00 67 1028.0
20190419093100 12 175 0.0 0.0 0.00 0.00 0.00 64 1028.1
20190419090010 13 175 0.0 0.0 0.00 0.00 0.00 61 1027.8
20190419084512 15 175 0.0 0.0 0.00 0.00 0.00 58 1027.8
20190419083048 16 175 0.0 1.6 0.00 0.00 0.00 55 1027.8
20190419081510 17 175 0.0 3.2 0.00 0.00 0.00 52 1027.7